Index of /20260415/WXO-DD/model_rdps/10km/12/052
Name Last modified Size Description
Parent Directory -
20260415T12Z_MSC_RDPS_AbsoluteVorticity_IsbL-0250_RLatLon0.09_PT052H.grib2 2026-04-15 14:56 745K
20260415T12Z_MSC_RDPS_AbsoluteVorticity_IsbL-0500_RLatLon0.09_PT052H.grib2 2026-04-15 14:56 555K
20260415T12Z_MSC_RDPS_AbsoluteVorticity_IsbL-0700_RLatLon0.09_PT052H.grib2 2026-04-15 14:56 604K
20260415T12Z_MSC_RDPS_AbsoluteVorticity_IsbL-0850_RLatLon0.09_PT052H.grib2 2026-04-15 14:56 784K
20260415T12Z_MSC_RDPS_AirTemp_AGL-120m_RLatLon0.09_PT052H.grib2 2026-04-15 14:56 388K
20260415T12Z_MSC_RDPS_AirTemp_AGL-2m_RLatLon0.09_PT052H.grib2 2026-04-15 14:56 650K
20260415T12Z_MSC_RDPS_AirTemp_AGL-40m_RLatLon0.09_PT052H.grib2 2026-04-15 14:56 417K
20260415T12Z_MSC_RDPS_AirTemp_AGL-80m_RLatLon0.09_PT052H.grib2 2026-04-15 14:56 395K
20260415T12Z_MSC_RDPS_AirTemp_IsbL-0001_RLatLon0.09_PT052H.grib2 2026-04-15 14:56 319K
20260415T12Z_MSC_RDPS_AirTemp_IsbL-0005_RLatLon0.09_PT052H.grib2 2026-04-15 14:56 333K
20260415T12Z_MSC_RDPS_AirTemp_IsbL-0010_RLatLon0.09_PT052H.grib2 2026-04-15 14:56 302K
20260415T12Z_MSC_RDPS_AirTemp_IsbL-0020_RLatLon0.09_PT052H.grib2 2026-04-15 14:56 324K
20260415T12Z_MSC_RDPS_AirTemp_IsbL-0030_RLatLon0.09_PT052H.grib2 2026-04-15 14:56 381K
20260415T12Z_MSC_RDPS_AirTemp_IsbL-0050_RLatLon0.09_PT052H.grib2 2026-04-15 14:56 327K
20260415T12Z_MSC_RDPS_AirTemp_IsbL-0100_RLatLon0.09_PT052H.grib2 2026-04-15 14:56 389K
20260415T12Z_MSC_RDPS_AirTemp_IsbL-0150_RLatLon0.09_PT052H.grib2 2026-04-15 14:56 403K
20260415T12Z_MSC_RDPS_AirTemp_IsbL-0175_RLatLon0.09_PT052H.grib2 2026-04-15 14:56 401K
20260415T12Z_MSC_RDPS_AirTemp_IsbL-0200_RLatLon0.09_PT052H.grib2 2026-04-15 14:56 410K
20260415T12Z_MSC_RDPS_AirTemp_IsbL-0225_RLatLon0.09_PT052H.grib2 2026-04-15 14:56 414K
20260415T12Z_MSC_RDPS_AirTemp_IsbL-0250_RLatLon0.09_PT052H.grib2 2026-04-15 14:56 422K
20260415T12Z_MSC_RDPS_AirTemp_IsbL-0275_RLatLon0.09_PT052H.grib2 2026-04-15 14:56 402K
20260415T12Z_MSC_RDPS_AirTemp_IsbL-0300_RLatLon0.09_PT052H.grib2 2026-04-15 14:56 405K
20260415T12Z_MSC_RDPS_AirTemp_IsbL-0350_RLatLon0.09_PT052H.grib2 2026-04-15 14:56 415K
20260415T12Z_MSC_RDPS_AirTemp_IsbL-0400_RLatLon0.09_PT052H.grib2 2026-04-15 14:56 414K
20260415T12Z_MSC_RDPS_AirTemp_IsbL-0450_RLatLon0.09_PT052H.grib2 2026-04-15 14:56 385K
20260415T12Z_MSC_RDPS_AirTemp_IsbL-0500_RLatLon0.09_PT052H.grib2 2026-04-15 14:56 396K
20260415T12Z_MSC_RDPS_AirTemp_IsbL-0550_RLatLon0.09_PT052H.grib2 2026-04-15 14:56 413K
20260415T12Z_MSC_RDPS_AirTemp_IsbL-0600_RLatLon0.09_PT052H.grib2 2026-04-15 14:56 433K
20260415T12Z_MSC_RDPS_AirTemp_IsbL-0650_RLatLon0.09_PT052H.grib2 2026-04-15 14:56 447K
20260415T12Z_MSC_RDPS_AirTemp_IsbL-0700_RLatLon0.09_PT052H.grib2 2026-04-15 14:56 474K
20260415T12Z_MSC_RDPS_AirTemp_IsbL-0750_RLatLon0.09_PT052H.grib2 2026-04-15 14:56 518K
20260415T12Z_MSC_RDPS_AirTemp_IsbL-0800_RLatLon0.09_PT052H.grib2 2026-04-15 14:56 457K
20260415T12Z_MSC_RDPS_AirTemp_IsbL-0850_RLatLon0.09_PT052H.grib2 2026-04-15 14:56 510K
20260415T12Z_MSC_RDPS_AirTemp_IsbL-0875_RLatLon0.09_PT052H.grib2 2026-04-15 14:56 527K
20260415T12Z_MSC_RDPS_AirTemp_IsbL-0900_RLatLon0.09_PT052H.grib2 2026-04-15 14:56 537K
20260415T12Z_MSC_RDPS_AirTemp_IsbL-0925_RLatLon0.09_PT052H.grib2 2026-04-15 14:56 538K
20260415T12Z_MSC_RDPS_AirTemp_IsbL-0950_RLatLon0.09_PT052H.grib2 2026-04-15 14:56 538K
20260415T12Z_MSC_RDPS_AirTemp_IsbL-0970_RLatLon0.09_PT052H.grib2 2026-04-15 14:56 534K
20260415T12Z_MSC_RDPS_AirTemp_IsbL-0985_RLatLon0.09_PT052H.grib2 2026-04-15 14:56 536K
20260415T12Z_MSC_RDPS_AirTemp_IsbL-1000_RLatLon0.09_PT052H.grib2 2026-04-15 14:56 521K
20260415T12Z_MSC_RDPS_AirTemp_IsbL-1015_RLatLon0.09_PT052H.grib2 2026-04-15 14:56 518K
20260415T12Z_MSC_RDPS_Albedo_Sfc_RLatLon0.09_PT052H.grib2 2026-04-15 14:56 168K
20260415T12Z_MSC_RDPS_CAPE_Sfc_RLatLon0.09_PT052H.grib2 2026-04-15 14:56 1.7M
20260415T12Z_MSC_RDPS_CIN_Sfc_RLatLon0.09_PT052H.grib2 2026-04-15 14:56 1.1M
20260415T12Z_MSC_RDPS_CloudWater_EAtm_RLatLon0.09_PT052H.grib2 2026-04-15 14:56 211K
20260415T12Z_MSC_RDPS_ConvectivePrecip-Accum_Sfc_RLatLon0.09_PT052H.grib2 2026-04-15 14:56 1.1M
20260415T12Z_MSC_RDPS_DewPointDepression_AGL-2m_RLatLon0.09_PT052H.grib2 2026-04-15 14:56 411K
20260415T12Z_MSC_RDPS_DewPointDepression_IsbL-0001_RLatLon0.09_PT052H.grib2 2026-04-15 14:56 193
20260415T12Z_MSC_RDPS_DewPointDepression_IsbL-0005_RLatLon0.09_PT052H.grib2 2026-04-15 14:56 193
20260415T12Z_MSC_RDPS_DewPointDepression_IsbL-0010_RLatLon0.09_PT052H.grib2 2026-04-15 14:56 193
20260415T12Z_MSC_RDPS_DewPointDepression_IsbL-0020_RLatLon0.09_PT052H.grib2 2026-04-15 14:56 193
20260415T12Z_MSC_RDPS_DewPointDepression_IsbL-0030_RLatLon0.09_PT052H.grib2 2026-04-15 14:56 6.5K
20260415T12Z_MSC_RDPS_DewPointDepression_IsbL-0050_RLatLon0.09_PT052H.grib2 2026-04-15 14:56 103K
20260415T12Z_MSC_RDPS_DewPointDepression_IsbL-0100_RLatLon0.09_PT052H.grib2 2026-04-15 14:56 122K
20260415T12Z_MSC_RDPS_DewPointDepression_IsbL-0150_RLatLon0.09_PT052H.grib2 2026-04-15 14:56 141K
20260415T12Z_MSC_RDPS_DewPointDepression_IsbL-0175_RLatLon0.09_PT052H.grib2 2026-04-15 14:56 171K
20260415T12Z_MSC_RDPS_DewPointDepression_IsbL-0200_RLatLon0.09_PT052H.grib2 2026-04-15 14:56 201K
20260415T12Z_MSC_RDPS_DewPointDepression_IsbL-0225_RLatLon0.09_PT052H.grib2 2026-04-15 14:56 242K
20260415T12Z_MSC_RDPS_DewPointDepression_IsbL-0250_RLatLon0.09_PT052H.grib2 2026-04-15 14:56 289K
20260415T12Z_MSC_RDPS_DewPointDepression_IsbL-0275_RLatLon0.09_PT052H.grib2 2026-04-15 14:56 299K
20260415T12Z_MSC_RDPS_DewPointDepression_IsbL-0300_RLatLon0.09_PT052H.grib2 2026-04-15 14:56 317K
20260415T12Z_MSC_RDPS_DewPointDepression_IsbL-0350_RLatLon0.09_PT052H.grib2 2026-04-15 14:56 320K
20260415T12Z_MSC_RDPS_DewPointDepression_IsbL-0400_RLatLon0.09_PT052H.grib2 2026-04-15 14:56 329K
20260415T12Z_MSC_RDPS_DewPointDepression_IsbL-0450_RLatLon0.09_PT052H.grib2 2026-04-15 14:56 334K
20260415T12Z_MSC_RDPS_DewPointDepression_IsbL-0500_RLatLon0.09_PT052H.grib2 2026-04-15 14:56 337K
20260415T12Z_MSC_RDPS_DewPointDepression_IsbL-0550_RLatLon0.09_PT052H.grib2 2026-04-15 14:56 351K
20260415T12Z_MSC_RDPS_DewPointDepression_IsbL-0600_RLatLon0.09_PT052H.grib2 2026-04-15 14:56 365K
20260415T12Z_MSC_RDPS_DewPointDepression_IsbL-0650_RLatLon0.09_PT052H.grib2 2026-04-15 14:56 374K
20260415T12Z_MSC_RDPS_DewPointDepression_IsbL-0700_RLatLon0.09_PT052H.grib2 2026-04-15 14:56 387K
20260415T12Z_MSC_RDPS_DewPointDepression_IsbL-0750_RLatLon0.09_PT052H.grib2 2026-04-15 14:56 414K
20260415T12Z_MSC_RDPS_DewPointDepression_IsbL-0800_RLatLon0.09_PT052H.grib2 2026-04-15 14:56 450K
20260415T12Z_MSC_RDPS_DewPointDepression_IsbL-0850_RLatLon0.09_PT052H.grib2 2026-04-15 14:56 477K
20260415T12Z_MSC_RDPS_DewPointDepression_IsbL-0875_RLatLon0.09_PT052H.grib2 2026-04-15 14:56 473K
20260415T12Z_MSC_RDPS_DewPointDepression_IsbL-0900_RLatLon0.09_PT052H.grib2 2026-04-15 14:56 466K
20260415T12Z_MSC_RDPS_DewPointDepression_IsbL-0925_RLatLon0.09_PT052H.grib2 2026-04-15 14:56 454K
20260415T12Z_MSC_RDPS_DewPointDepression_IsbL-0950_RLatLon0.09_PT052H.grib2 2026-04-15 14:56 444K
20260415T12Z_MSC_RDPS_DewPointDepression_IsbL-0970_RLatLon0.09_PT052H.grib2 2026-04-15 14:56 441K
20260415T12Z_MSC_RDPS_DewPointDepression_IsbL-0985_RLatLon0.09_PT052H.grib2 2026-04-15 14:56 439K
20260415T12Z_MSC_RDPS_DewPointDepression_IsbL-1000_RLatLon0.09_PT052H.grib2 2026-04-15 14:56 436K
20260415T12Z_MSC_RDPS_DewPointDepression_IsbL-1015_RLatLon0.09_PT052H.grib2 2026-04-15 14:56 430K
20260415T12Z_MSC_RDPS_DewPoint_AGL-2m_RLatLon0.09_PT052H.grib2 2026-04-15 14:56 409K
20260415T12Z_MSC_RDPS_DownwardLongwaveRadiationFlux-Accum_Sfc_RLatLon0.09_PT052H.grib2 2026-04-15 14:56 379K
20260415T12Z_MSC_RDPS_DownwardShortwaveRadiationFlux-Accum_NTAtm_RLatLon0.09_PT052H.grib2 2026-04-15 14:56 99K
20260415T12Z_MSC_RDPS_DownwardShortwaveRadiationFlux-Accum_Sfc_RLatLon0.09_PT052H.grib2 2026-04-15 14:56 556K
20260415T12Z_MSC_RDPS_FreezingRain-Accum1h_Sfc_RLatLon0.09_PT052H.grib2 2026-04-15 14:56 19K
20260415T12Z_MSC_RDPS_FreezingRain-Accum_Sfc_RLatLon0.09_PT052H.grib2 2026-04-15 14:56 137K
20260415T12Z_MSC_RDPS_GeopotentialHeight_IsbL-0001_RLatLon0.09_PT052H.grib2 2026-04-15 14:56 211K
20260415T12Z_MSC_RDPS_GeopotentialHeight_IsbL-0005_RLatLon0.09_PT052H.grib2 2026-04-15 14:56 234K
20260415T12Z_MSC_RDPS_GeopotentialHeight_IsbL-0010_RLatLon0.09_PT052H.grib2 2026-04-15 14:56 308K
20260415T12Z_MSC_RDPS_GeopotentialHeight_IsbL-0020_RLatLon0.09_PT052H.grib2 2026-04-15 14:56 335K
20260415T12Z_MSC_RDPS_GeopotentialHeight_IsbL-0030_RLatLon0.09_PT052H.grib2 2026-04-15 14:56 338K
20260415T12Z_MSC_RDPS_GeopotentialHeight_IsbL-0050_RLatLon0.09_PT052H.grib2 2026-04-15 14:56 237K
20260415T12Z_MSC_RDPS_GeopotentialHeight_IsbL-0100_RLatLon0.09_PT052H.grib2 2026-04-15 14:56 221K
20260415T12Z_MSC_RDPS_GeopotentialHeight_IsbL-0150_RLatLon0.09_PT052H.grib2 2026-04-15 14:56 261K
20260415T12Z_MSC_RDPS_GeopotentialHeight_IsbL-0175_RLatLon0.09_PT052H.grib2 2026-04-15 14:56 263K
20260415T12Z_MSC_RDPS_GeopotentialHeight_IsbL-0200_RLatLon0.09_PT052H.grib2 2026-04-15 14:56 264K
20260415T12Z_MSC_RDPS_GeopotentialHeight_IsbL-0225_RLatLon0.09_PT052H.grib2 2026-04-15 14:56 266K
20260415T12Z_MSC_RDPS_GeopotentialHeight_IsbL-0250_RLatLon0.09_PT052H.grib2 2026-04-15 14:56 267K
20260415T12Z_MSC_RDPS_GeopotentialHeight_IsbL-0275_RLatLon0.09_PT052H.grib2 2026-04-15 14:56 266K
20260415T12Z_MSC_RDPS_GeopotentialHeight_IsbL-0300_RLatLon0.09_PT052H.grib2 2026-04-15 14:56 265K
20260415T12Z_MSC_RDPS_GeopotentialHeight_IsbL-0350_RLatLon0.09_PT052H.grib2 2026-04-15 14:56 229K
20260415T12Z_MSC_RDPS_GeopotentialHeight_IsbL-0400_RLatLon0.09_PT052H.grib2 2026-04-15 14:56 226K
20260415T12Z_MSC_RDPS_GeopotentialHeight_IsbL-0450_RLatLon0.09_PT052H.grib2 2026-04-15 14:56 221K
20260415T12Z_MSC_RDPS_GeopotentialHeight_IsbL-0500_RLatLon0.09_PT052H.grib2 2026-04-15 14:56 287K
20260415T12Z_MSC_RDPS_GeopotentialHeight_IsbL-0550_RLatLon0.09_PT052H.grib2 2026-04-15 14:56 283K
20260415T12Z_MSC_RDPS_GeopotentialHeight_IsbL-0600_RLatLon0.09_PT052H.grib2 2026-04-15 14:56 280K
20260415T12Z_MSC_RDPS_GeopotentialHeight_IsbL-0650_RLatLon0.09_PT052H.grib2 2026-04-15 14:56 277K
20260415T12Z_MSC_RDPS_GeopotentialHeight_IsbL-0700_RLatLon0.09_PT052H.grib2 2026-04-15 14:56 249K
20260415T12Z_MSC_RDPS_GeopotentialHeight_IsbL-0750_RLatLon0.09_PT052H.grib2 2026-04-15 14:56 251K
20260415T12Z_MSC_RDPS_GeopotentialHeight_IsbL-0800_RLatLon0.09_PT052H.grib2 2026-04-15 14:56 342K
20260415T12Z_MSC_RDPS_GeopotentialHeight_IsbL-0850_RLatLon0.09_PT052H.grib2 2026-04-15 14:56 354K
20260415T12Z_MSC_RDPS_GeopotentialHeight_IsbL-0875_RLatLon0.09_PT052H.grib2 2026-04-15 14:56 356K
20260415T12Z_MSC_RDPS_GeopotentialHeight_IsbL-0900_RLatLon0.09_PT052H.grib2 2026-04-15 14:56 363K
20260415T12Z_MSC_RDPS_GeopotentialHeight_IsbL-0925_RLatLon0.09_PT052H.grib2 2026-04-15 14:56 367K
20260415T12Z_MSC_RDPS_GeopotentialHeight_IsbL-0950_RLatLon0.09_PT052H.grib2 2026-04-15 14:56 369K
20260415T12Z_MSC_RDPS_GeopotentialHeight_IsbL-0970_RLatLon0.09_PT052H.grib2 2026-04-15 14:56 375K
20260415T12Z_MSC_RDPS_GeopotentialHeight_IsbL-0985_RLatLon0.09_PT052H.grib2 2026-04-15 14:56 385K
20260415T12Z_MSC_RDPS_GeopotentialHeight_IsbL-1000_RLatLon0.09_PT052H.grib2 2026-04-15 14:56 399K
20260415T12Z_MSC_RDPS_GeopotentialHeight_IsbL-1015_RLatLon0.09_PT052H.grib2 2026-04-15 14:56 416K
20260415T12Z_MSC_RDPS_Humidex_Sfc_RLatLon0.09_PT052H.grib2 2026-04-15 14:56 2.4M
20260415T12Z_MSC_RDPS_IcePellets-Accum1h_Sfc_RLatLon0.09_PT052H.grib2 2026-04-15 14:56 11K
20260415T12Z_MSC_RDPS_IcePellets-Accum_Sfc_RLatLon0.09_PT052H.grib2 2026-04-15 14:56 35K
20260415T12Z_MSC_RDPS_KIndex_Sfc_RLatLon0.09_PT052H.grib2 2026-04-15 14:56 2.4M
20260415T12Z_MSC_RDPS_LatentHeatNetFlux_Sfc_RLatLon0.09_PT052H.grib2 2026-04-15 14:56 368K
20260415T12Z_MSC_RDPS_LiftedIndex-MU-VT_IsbL-0500_RLatLon0.09_PT052H.grib2 2026-04-15 14:56 2.4M
20260415T12Z_MSC_RDPS_NetLongwaveRadiationFlux-Accum_Sfc_RLatLon0.09_PT052H.grib2 2026-04-15 14:56 561K
20260415T12Z_MSC_RDPS_NetShortwaveRadiationFlux-Accum_Sfc_RLatLon0.09_PT052H.grib2 2026-04-15 14:56 564K
20260415T12Z_MSC_RDPS_PlanetaryBoundaryLayerHeight_Sfc_RLatLon0.09_PT052H.grib2 2026-04-15 14:56 1.0M
20260415T12Z_MSC_RDPS_Precip-Accum1h_Sfc_RLatLon0.09_PT052H.grib2 2026-04-15 14:56 1.3M
20260415T12Z_MSC_RDPS_Precip-Accum_Sfc_RLatLon0.09_PT052H.grib2 2026-04-15 14:56 2.1M
20260415T12Z_MSC_RDPS_PrecipRate_Sfc_RLatLon0.09_PT052H.grib2 2026-04-15 14:56 167K
20260415T12Z_MSC_RDPS_PrecipType-Instant_Sfc_RLatLon0.09_PT052H.grib2 2026-04-15 14:56 550K
20260415T12Z_MSC_RDPS_Pressure-Trend3h_Sfc_RLatLon0.09_PT052H.grib2 2026-04-15 14:56 1.2M
20260415T12Z_MSC_RDPS_Pressure_MSL_RLatLon0.09_PT052H.grib2 2026-04-15 14:56 299K
20260415T12Z_MSC_RDPS_Pressure_PVU-1.5_RLatLon0.09_PT052H.grib2 2026-04-15 14:56 2.3M
20260415T12Z_MSC_RDPS_Pressure_PVU-1_RLatLon0.09_PT052H.grib2 2026-04-15 14:56 2.4M
20260415T12Z_MSC_RDPS_Pressure_PVU-2_RLatLon0.09_PT052H.grib2 2026-04-15 14:56 2.4M
20260415T12Z_MSC_RDPS_Pressure_Sfc_RLatLon0.09_PT052H.grib2 2026-04-15 14:56 501K
20260415T12Z_MSC_RDPS_RadiativeTemp_Sfc_RLatLon0.09_PT052H.grib2 2026-04-15 14:56 327K
20260415T12Z_MSC_RDPS_Rain-Accum1h_Sfc_RLatLon0.09_PT052H.grib2 2026-04-15 14:56 576K
20260415T12Z_MSC_RDPS_Rain-Accum_Sfc_RLatLon0.09_PT052H.grib2 2026-04-15 14:56 1.5M
20260415T12Z_MSC_RDPS_RelativeHumidity_AGL-2m_RLatLon0.09_PT052H.grib2 2026-04-15 14:56 1.0M
20260415T12Z_MSC_RDPS_RelativeHumidity_IsbL-0010_RLatLon0.09_PT052H.grib2 2026-04-15 14:56 641K
20260415T12Z_MSC_RDPS_RelativeHumidity_IsbL-0020_RLatLon0.09_PT052H.grib2 2026-04-15 14:56 541K
20260415T12Z_MSC_RDPS_RelativeHumidity_IsbL-0030_RLatLon0.09_PT052H.grib2 2026-04-15 14:56 358K
20260415T12Z_MSC_RDPS_RelativeHumidity_IsbL-0050_RLatLon0.09_PT052H.grib2 2026-04-15 14:56 387K
20260415T12Z_MSC_RDPS_RelativeHumidity_IsbL-0100_RLatLon0.09_PT052H.grib2 2026-04-15 14:56 258K
20260415T12Z_MSC_RDPS_RelativeHumidity_IsbL-0150_RLatLon0.09_PT052H.grib2 2026-04-15 14:56 371K
20260415T12Z_MSC_RDPS_RelativeHumidity_IsbL-0175_RLatLon0.09_PT052H.grib2 2026-04-15 14:56 448K
20260415T12Z_MSC_RDPS_RelativeHumidity_IsbL-0200_RLatLon0.09_PT052H.grib2 2026-04-15 14:56 530K
20260415T12Z_MSC_RDPS_RelativeHumidity_IsbL-0225_RLatLon0.09_PT052H.grib2 2026-04-15 14:56 601K
20260415T12Z_MSC_RDPS_RelativeHumidity_IsbL-0250_RLatLon0.09_PT052H.grib2 2026-04-15 14:56 678K
20260415T12Z_MSC_RDPS_RelativeHumidity_IsbL-0275_RLatLon0.09_PT052H.grib2 2026-04-15 14:56 707K
20260415T12Z_MSC_RDPS_RelativeHumidity_IsbL-0300_RLatLon0.09_PT052H.grib2 2026-04-15 14:56 752K
20260415T12Z_MSC_RDPS_RelativeHumidity_IsbL-0350_RLatLon0.09_PT052H.grib2 2026-04-15 14:56 765K
20260415T12Z_MSC_RDPS_RelativeHumidity_IsbL-0400_RLatLon0.09_PT052H.grib2 2026-04-15 14:56 779K
20260415T12Z_MSC_RDPS_RelativeHumidity_IsbL-0450_RLatLon0.09_PT052H.grib2 2026-04-15 14:56 785K
20260415T12Z_MSC_RDPS_RelativeHumidity_IsbL-0500_RLatLon0.09_PT052H.grib2 2026-04-15 14:56 801K
20260415T12Z_MSC_RDPS_RelativeHumidity_IsbL-0550_RLatLon0.09_PT052H.grib2 2026-04-15 14:56 822K
20260415T12Z_MSC_RDPS_RelativeHumidity_IsbL-0600_RLatLon0.09_PT052H.grib2 2026-04-15 14:56 844K
20260415T12Z_MSC_RDPS_RelativeHumidity_IsbL-0650_RLatLon0.09_PT052H.grib2 2026-04-15 14:56 853K
20260415T12Z_MSC_RDPS_RelativeHumidity_IsbL-0700_RLatLon0.09_PT052H.grib2 2026-04-15 14:56 876K
20260415T12Z_MSC_RDPS_RelativeHumidity_IsbL-0750_RLatLon0.09_PT052H.grib2 2026-04-15 14:56 921K
20260415T12Z_MSC_RDPS_RelativeHumidity_IsbL-0800_RLatLon0.09_PT052H.grib2 2026-04-15 14:56 1.0M
20260415T12Z_MSC_RDPS_RelativeHumidity_IsbL-0850_RLatLon0.09_PT052H.grib2 2026-04-15 14:56 1.0M
20260415T12Z_MSC_RDPS_RelativeHumidity_IsbL-0875_RLatLon0.09_PT052H.grib2 2026-04-15 14:56 1.1M
20260415T12Z_MSC_RDPS_RelativeHumidity_IsbL-0900_RLatLon0.09_PT052H.grib2 2026-04-15 14:56 1.1M
20260415T12Z_MSC_RDPS_RelativeHumidity_IsbL-0925_RLatLon0.09_PT052H.grib2 2026-04-15 14:56 1.1M
20260415T12Z_MSC_RDPS_RelativeHumidity_IsbL-0950_RLatLon0.09_PT052H.grib2 2026-04-15 14:56 1.1M
20260415T12Z_MSC_RDPS_RelativeHumidity_IsbL-0970_RLatLon0.09_PT052H.grib2 2026-04-15 14:56 1.1M
20260415T12Z_MSC_RDPS_RelativeHumidity_IsbL-0985_RLatLon0.09_PT052H.grib2 2026-04-15 14:56 1.1M
20260415T12Z_MSC_RDPS_RelativeHumidity_IsbL-1000_RLatLon0.09_PT052H.grib2 2026-04-15 14:56 1.0M
20260415T12Z_MSC_RDPS_RelativeHumidity_IsbL-1015_RLatLon0.09_PT052H.grib2 2026-04-15 14:56 1.0M
20260415T12Z_MSC_RDPS_Runoff-Accum_Sfc_RLatLon0.09_PT052H.grib2 2026-04-15 14:56 73K
20260415T12Z_MSC_RDPS_SWEATIndex_Sfc_RLatLon0.09_PT052H.grib2 2026-04-15 14:56 2.4M
20260415T12Z_MSC_RDPS_SeeingIndex_EAtm_RLatLon0.09_PT052H.grib2 2026-04-15 14:56 1.0M
20260415T12Z_MSC_RDPS_SensibleHeatNetFlux_Sfc_RLatLon0.09_PT052H.grib2 2026-04-15 14:56 359K
20260415T12Z_MSC_RDPS_ShowalterIndex_IsbL-0500_RLatLon0.09_PT052H.grib2 2026-04-15 14:56 2.6M
20260415T12Z_MSC_RDPS_SkyTransparencyIndex_EAtm_RLatLon0.09_PT052H.grib2 2026-04-15 14:56 727K
20260415T12Z_MSC_RDPS_Snow-Accum1h_Sfc_RLatLon0.09_PT052H.grib2 2026-04-15 14:56 497K
20260415T12Z_MSC_RDPS_Snow-Accum_Sfc_RLatLon0.09_PT052H.grib2 2026-04-15 14:56 858K
20260415T12Z_MSC_RDPS_SnowDensity_Sfc_RLatLon0.09_PT052H.grib2 2026-04-15 14:56 180K
20260415T12Z_MSC_RDPS_SnowDepth_Sfc_RLatLon0.09_PT052H.grib2 2026-04-15 14:56 743K
20260415T12Z_MSC_RDPS_SoilTemp_DBS-0to10cm_RLatLon0.09_PT052H.grib2 2026-04-15 14:56 234K
20260415T12Z_MSC_RDPS_SoilTemp_Sfc_RLatLon0.09_PT052H.grib2 2026-04-15 14:56 290K
20260415T12Z_MSC_RDPS_SoilVolumetricIceContent_Sfc_RLatLon0.09_PT052H.grib2 2026-04-15 14:56 178K
20260415T12Z_MSC_RDPS_SoilVolumetricWaterContent_DBS-0to10cm_RLatLon0.09_PT052H.grib2 2026-04-15 14:56 245K
20260415T12Z_MSC_RDPS_SoilVolumetricWaterContent_DBS-0to1cm_RLatLon0.09_PT052H.grib2 2026-04-15 14:56 337K
20260415T12Z_MSC_RDPS_SpecificHumidity_AGL-120m_RLatLon0.09_PT052H.grib2 2026-04-15 14:56 491K
20260415T12Z_MSC_RDPS_SpecificHumidity_AGL-2m_RLatLon0.09_PT052H.grib2 2026-04-15 14:56 655K
20260415T12Z_MSC_RDPS_SpecificHumidity_AGL-40m_RLatLon0.09_PT052H.grib2 2026-04-15 14:56 495K
20260415T12Z_MSC_RDPS_SpecificHumidity_AGL-80m_RLatLon0.09_PT052H.grib2 2026-04-15 14:56 492K
20260415T12Z_MSC_RDPS_SpecificHumidity_IsbL-0001_RLatLon0.09_PT052H.grib2 2026-04-15 14:56 307K
20260415T12Z_MSC_RDPS_SpecificHumidity_IsbL-0005_RLatLon0.09_PT052H.grib2 2026-04-15 14:56 342K
20260415T12Z_MSC_RDPS_SpecificHumidity_IsbL-0010_RLatLon0.09_PT052H.grib2 2026-04-15 14:56 376K
20260415T12Z_MSC_RDPS_SpecificHumidity_IsbL-0020_RLatLon0.09_PT052H.grib2 2026-04-15 14:56 488K
20260415T12Z_MSC_RDPS_SpecificHumidity_IsbL-0030_RLatLon0.09_PT052H.grib2 2026-04-15 14:56 430K
20260415T12Z_MSC_RDPS_SpecificHumidity_IsbL-0050_RLatLon0.09_PT052H.grib2 2026-04-15 14:56 495K
20260415T12Z_MSC_RDPS_SpecificHumidity_IsbL-0100_RLatLon0.09_PT052H.grib2 2026-04-15 14:56 485K
20260415T12Z_MSC_RDPS_SpecificHumidity_IsbL-0150_RLatLon0.09_PT052H.grib2 2026-04-15 14:56 429K
20260415T12Z_MSC_RDPS_SpecificHumidity_IsbL-0175_RLatLon0.09_PT052H.grib2 2026-04-15 14:56 416K
20260415T12Z_MSC_RDPS_SpecificHumidity_IsbL-0200_RLatLon0.09_PT052H.grib2 2026-04-15 14:56 427K
20260415T12Z_MSC_RDPS_SpecificHumidity_IsbL-0225_RLatLon0.09_PT052H.grib2 2026-04-15 14:56 431K
20260415T12Z_MSC_RDPS_SpecificHumidity_IsbL-0250_RLatLon0.09_PT052H.grib2 2026-04-15 14:56 538K
20260415T12Z_MSC_RDPS_SpecificHumidity_IsbL-0275_RLatLon0.09_PT052H.grib2 2026-04-15 14:56 453K
20260415T12Z_MSC_RDPS_SpecificHumidity_IsbL-0300_RLatLon0.09_PT052H.grib2 2026-04-15 14:56 525K
20260415T12Z_MSC_RDPS_SpecificHumidity_IsbL-0350_RLatLon0.09_PT052H.grib2 2026-04-15 14:56 513K
20260415T12Z_MSC_RDPS_SpecificHumidity_IsbL-0400_RLatLon0.09_PT052H.grib2 2026-04-15 14:56 496K
20260415T12Z_MSC_RDPS_SpecificHumidity_IsbL-0450_RLatLon0.09_PT052H.grib2 2026-04-15 14:56 548K
20260415T12Z_MSC_RDPS_SpecificHumidity_IsbL-0500_RLatLon0.09_PT052H.grib2 2026-04-15 14:56 484K
20260415T12Z_MSC_RDPS_SpecificHumidity_IsbL-0550_RLatLon0.09_PT052H.grib2 2026-04-15 14:56 542K
20260415T12Z_MSC_RDPS_SpecificHumidity_IsbL-0600_RLatLon0.09_PT052H.grib2 2026-04-15 14:56 613K
20260415T12Z_MSC_RDPS_SpecificHumidity_IsbL-0650_RLatLon0.09_PT052H.grib2 2026-04-15 14:56 528K
20260415T12Z_MSC_RDPS_SpecificHumidity_IsbL-0700_RLatLon0.09_PT052H.grib2 2026-04-15 14:56 572K
20260415T12Z_MSC_RDPS_SpecificHumidity_IsbL-0750_RLatLon0.09_PT052H.grib2 2026-04-15 14:56 633K
20260415T12Z_MSC_RDPS_SpecificHumidity_IsbL-0800_RLatLon0.09_PT052H.grib2 2026-04-15 14:56 715K
20260415T12Z_MSC_RDPS_SpecificHumidity_IsbL-0850_RLatLon0.09_PT052H.grib2 2026-04-15 14:56 799K
20260415T12Z_MSC_RDPS_SpecificHumidity_IsbL-0875_RLatLon0.09_PT052H.grib2 2026-04-15 14:56 818K
20260415T12Z_MSC_RDPS_SpecificHumidity_IsbL-0900_RLatLon0.09_PT052H.grib2 2026-04-15 14:56 831K
20260415T12Z_MSC_RDPS_SpecificHumidity_IsbL-0925_RLatLon0.09_PT052H.grib2 2026-04-15 14:56 835K
20260415T12Z_MSC_RDPS_SpecificHumidity_IsbL-0950_RLatLon0.09_PT052H.grib2 2026-04-15 14:56 833K
20260415T12Z_MSC_RDPS_SpecificHumidity_IsbL-0970_RLatLon0.09_PT052H.grib2 2026-04-15 14:56 830K
20260415T12Z_MSC_RDPS_SpecificHumidity_IsbL-0985_RLatLon0.09_PT052H.grib2 2026-04-15 14:56 825K
20260415T12Z_MSC_RDPS_SpecificHumidity_IsbL-1000_RLatLon0.09_PT052H.grib2 2026-04-15 14:56 679K
20260415T12Z_MSC_RDPS_SpecificHumidity_IsbL-1015_RLatLon0.09_PT052H.grib2 2026-04-15 14:56 669K
20260415T12Z_MSC_RDPS_SpecificHumidity_Sfc_RLatLon0.09_PT052H.grib2 2026-04-15 14:56 307K
20260415T12Z_MSC_RDPS_StormRelativeHelicity_EtaL-10000_RLatLon0.09_PT052H.grib2 2026-04-15 14:56 1.1M
20260415T12Z_MSC_RDPS_StormSeverityIndex_EtaL-10000_RLatLon0.09_PT052H.grib2 2026-04-15 14:56 1.2M
20260415T12Z_MSC_RDPS_Thickness_IsbL-0850to0700_RLatLon0.09_PT052H.grib2 2026-04-15 14:56 174K
20260415T12Z_MSC_RDPS_Thickness_IsbL-1000to0500_RLatLon0.09_PT052H.grib2 2026-04-15 14:56 199K
20260415T12Z_MSC_RDPS_Thickness_IsbL-1000to0850_RLatLon0.09_PT052H.grib2 2026-04-15 14:56 189K
20260415T12Z_MSC_RDPS_TotalCloudCover_Sfc_RLatLon0.09_PT052H.grib2 2026-04-15 14:56 662K
20260415T12Z_MSC_RDPS_TotalTotalsIndex_Sfc_RLatLon0.09_PT052H.grib2 2026-04-15 14:56 2.3M
20260415T12Z_MSC_RDPS_UVIndex-ClearSky_Sfc_RLatLon0.09_PT052H.grib2 2026-04-15 14:56 195K
20260415T12Z_MSC_RDPS_UVIndex_Sfc_RLatLon0.09_PT052H.grib2 2026-04-15 14:56 454K
20260415T12Z_MSC_RDPS_UpwardLongwaveRadiationFlux_NTAtm_RLatLon0.09_PT052H.grib2 2026-04-15 14:56 485K
20260415T12Z_MSC_RDPS_UpwardShortwaveRadiationFlux_NTAtm_RLatLon0.09_PT052H.grib2 2026-04-15 14:56 505K
20260415T12Z_MSC_RDPS_VerticalVelocity_IsbL-0250_RLatLon0.09_PT052H.grib2 2026-04-15 14:56 544K
20260415T12Z_MSC_RDPS_VerticalVelocity_IsbL-0500_RLatLon0.09_PT052H.grib2 2026-04-15 14:56 534K
20260415T12Z_MSC_RDPS_VerticalVelocity_IsbL-0700_RLatLon0.09_PT052H.grib2 2026-04-15 14:56 578K
20260415T12Z_MSC_RDPS_VerticalVelocity_IsbL-0850_RLatLon0.09_PT052H.grib2 2026-04-15 14:56 688K
20260415T12Z_MSC_RDPS_VerticalWindShear_EtaL-6500_RLatLon0.09_PT052H.grib2 2026-04-15 14:56 1.2M
20260415T12Z_MSC_RDPS_WindChill_Sfc_RLatLon0.09_PT052H.grib2 2026-04-15 14:56 1.3M
20260415T12Z_MSC_RDPS_WindDir_AGL-10m_RLatLon0.09_PT052H.grib2 2026-04-15 14:56 1.0M
20260415T12Z_MSC_RDPS_WindDir_AGL-120m_RLatLon0.09_PT052H.grib2 2026-04-15 14:56 630K
20260415T12Z_MSC_RDPS_WindDir_AGL-40m_RLatLon0.09_PT052H.grib2 2026-04-15 14:56 658K
20260415T12Z_MSC_RDPS_WindDir_AGL-80m_RLatLon0.09_PT052H.grib2 2026-04-15 14:56 642K
20260415T12Z_MSC_RDPS_WindDir_IsbL-0001_RLatLon0.09_PT052H.grib2 2026-04-15 14:56 271K
20260415T12Z_MSC_RDPS_WindDir_IsbL-0005_RLatLon0.09_PT052H.grib2 2026-04-15 14:56 333K
20260415T12Z_MSC_RDPS_WindDir_IsbL-0010_RLatLon0.09_PT052H.grib2 2026-04-15 14:56 365K
20260415T12Z_MSC_RDPS_WindDir_IsbL-0020_RLatLon0.09_PT052H.grib2 2026-04-15 14:56 376K
20260415T12Z_MSC_RDPS_WindDir_IsbL-0030_RLatLon0.09_PT052H.grib2 2026-04-15 14:56 385K
20260415T12Z_MSC_RDPS_WindDir_IsbL-0050_RLatLon0.09_PT052H.grib2 2026-04-15 14:56 401K
20260415T12Z_MSC_RDPS_WindDir_IsbL-0100_RLatLon0.09_PT052H.grib2 2026-04-15 14:56 386K
20260415T12Z_MSC_RDPS_WindDir_IsbL-0150_RLatLon0.09_PT052H.grib2 2026-04-15 14:56 374K
20260415T12Z_MSC_RDPS_WindDir_IsbL-0175_RLatLon0.09_PT052H.grib2 2026-04-15 14:56 393K
20260415T12Z_MSC_RDPS_WindDir_IsbL-0200_RLatLon0.09_PT052H.grib2 2026-04-15 14:56 412K
20260415T12Z_MSC_RDPS_WindDir_IsbL-0225_RLatLon0.09_PT052H.grib2 2026-04-15 14:56 422K
20260415T12Z_MSC_RDPS_WindDir_IsbL-0250_RLatLon0.09_PT052H.grib2 2026-04-15 14:56 429K
20260415T12Z_MSC_RDPS_WindDir_IsbL-0275_RLatLon0.09_PT052H.grib2 2026-04-15 14:56 452K
20260415T12Z_MSC_RDPS_WindDir_IsbL-0300_RLatLon0.09_PT052H.grib2 2026-04-15 14:56 450K
20260415T12Z_MSC_RDPS_WindDir_IsbL-0350_RLatLon0.09_PT052H.grib2 2026-04-15 14:56 469K
20260415T12Z_MSC_RDPS_WindDir_IsbL-0400_RLatLon0.09_PT052H.grib2 2026-04-15 14:56 489K
20260415T12Z_MSC_RDPS_WindDir_IsbL-0450_RLatLon0.09_PT052H.grib2 2026-04-15 14:56 512K
20260415T12Z_MSC_RDPS_WindDir_IsbL-0500_RLatLon0.09_PT052H.grib2 2026-04-15 14:56 534K
20260415T12Z_MSC_RDPS_WindDir_IsbL-0550_RLatLon0.09_PT052H.grib2 2026-04-15 14:56 555K
20260415T12Z_MSC_RDPS_WindDir_IsbL-0600_RLatLon0.09_PT052H.grib2 2026-04-15 14:56 582K
20260415T12Z_MSC_RDPS_WindDir_IsbL-0650_RLatLon0.09_PT052H.grib2 2026-04-15 14:56 622K
20260415T12Z_MSC_RDPS_WindDir_IsbL-0700_RLatLon0.09_PT052H.grib2 2026-04-15 14:56 670K
20260415T12Z_MSC_RDPS_WindDir_IsbL-0750_RLatLon0.09_PT052H.grib2 2026-04-15 14:56 722K
20260415T12Z_MSC_RDPS_WindDir_IsbL-0800_RLatLon0.09_PT052H.grib2 2026-04-15 14:56 789K
20260415T12Z_MSC_RDPS_WindDir_IsbL-0850_RLatLon0.09_PT052H.grib2 2026-04-15 14:56 868K
20260415T12Z_MSC_RDPS_WindDir_IsbL-0875_RLatLon0.09_PT052H.grib2 2026-04-15 14:56 897K
20260415T12Z_MSC_RDPS_WindDir_IsbL-0900_RLatLon0.09_PT052H.grib2 2026-04-15 14:56 919K
20260415T12Z_MSC_RDPS_WindDir_IsbL-0925_RLatLon0.09_PT052H.grib2 2026-04-15 14:56 932K
20260415T12Z_MSC_RDPS_WindDir_IsbL-0950_RLatLon0.09_PT052H.grib2 2026-04-15 14:56 932K
20260415T12Z_MSC_RDPS_WindDir_IsbL-0970_RLatLon0.09_PT052H.grib2 2026-04-15 14:56 936K
20260415T12Z_MSC_RDPS_WindDir_IsbL-0985_RLatLon0.09_PT052H.grib2 2026-04-15 14:56 946K
20260415T12Z_MSC_RDPS_WindDir_IsbL-1000_RLatLon0.09_PT052H.grib2 2026-04-15 14:56 964K
20260415T12Z_MSC_RDPS_WindDir_IsbL-1015_RLatLon0.09_PT052H.grib2 2026-04-15 14:56 1.0M
20260415T12Z_MSC_RDPS_WindGust-Max_AGL-10m_RLatLon0.09_PT052H.grib2 2026-04-15 14:56 967K
20260415T12Z_MSC_RDPS_WindGust-Min_AGL-10m_RLatLon0.09_PT052H.grib2 2026-04-15 14:56 1.0M
20260415T12Z_MSC_RDPS_WindGust_AGL-10m_RLatLon0.09_PT052H.grib2 2026-04-15 14:56 1.0M
20260415T12Z_MSC_RDPS_WindSpeed_AGL-10m_RLatLon0.09_PT052H.grib2 2026-04-15 14:56 857K
20260415T12Z_MSC_RDPS_WindSpeed_AGL-120m_RLatLon0.09_PT052H.grib2 2026-04-15 14:56 557K
20260415T12Z_MSC_RDPS_WindSpeed_AGL-40m_RLatLon0.09_PT052H.grib2 2026-04-15 14:56 550K
20260415T12Z_MSC_RDPS_WindSpeed_AGL-80m_RLatLon0.09_PT052H.grib2 2026-04-15 14:56 547K
20260415T12Z_MSC_RDPS_WindSpeed_IsbL-0001_RLatLon0.09_PT052H.grib2 2026-04-15 14:56 250K
20260415T12Z_MSC_RDPS_WindSpeed_IsbL-0005_RLatLon0.09_PT052H.grib2 2026-04-15 14:56 339K
20260415T12Z_MSC_RDPS_WindSpeed_IsbL-0010_RLatLon0.09_PT052H.grib2 2026-04-15 14:56 350K
20260415T12Z_MSC_RDPS_WindSpeed_IsbL-0020_RLatLon0.09_PT052H.grib2 2026-04-15 14:56 338K
20260415T12Z_MSC_RDPS_WindSpeed_IsbL-0030_RLatLon0.09_PT052H.grib2 2026-04-15 14:56 334K
20260415T12Z_MSC_RDPS_WindSpeed_IsbL-0050_RLatLon0.09_PT052H.grib2 2026-04-15 14:56 370K
20260415T12Z_MSC_RDPS_WindSpeed_IsbL-0100_RLatLon0.09_PT052H.grib2 2026-04-15 14:56 446K
20260415T12Z_MSC_RDPS_WindSpeed_IsbL-0150_RLatLon0.09_PT052H.grib2 2026-04-15 14:56 364K
20260415T12Z_MSC_RDPS_WindSpeed_IsbL-0175_RLatLon0.09_PT052H.grib2 2026-04-15 14:56 389K
20260415T12Z_MSC_RDPS_WindSpeed_IsbL-0200_RLatLon0.09_PT052H.grib2 2026-04-15 14:56 430K
20260415T12Z_MSC_RDPS_WindSpeed_IsbL-0225_RLatLon0.09_PT052H.grib2 2026-04-15 14:56 441K
20260415T12Z_MSC_RDPS_WindSpeed_IsbL-0250_RLatLon0.09_PT052H.grib2 2026-04-15 14:56 447K
20260415T12Z_MSC_RDPS_WindSpeed_IsbL-0275_RLatLon0.09_PT052H.grib2 2026-04-15 14:56 463K
20260415T12Z_MSC_RDPS_WindSpeed_IsbL-0300_RLatLon0.09_PT052H.grib2 2026-04-15 14:56 460K
20260415T12Z_MSC_RDPS_WindSpeed_IsbL-0350_RLatLon0.09_PT052H.grib2 2026-04-15 14:56 471K
20260415T12Z_MSC_RDPS_WindSpeed_IsbL-0400_RLatLon0.09_PT052H.grib2 2026-04-15 14:56 456K
20260415T12Z_MSC_RDPS_WindSpeed_IsbL-0450_RLatLon0.09_PT052H.grib2 2026-04-15 14:56 452K
20260415T12Z_MSC_RDPS_WindSpeed_IsbL-0500_RLatLon0.09_PT052H.grib2 2026-04-15 14:56 567K
20260415T12Z_MSC_RDPS_WindSpeed_IsbL-0550_RLatLon0.09_PT052H.grib2 2026-04-15 14:56 567K
20260415T12Z_MSC_RDPS_WindSpeed_IsbL-0600_RLatLon0.09_PT052H.grib2 2026-04-15 14:56 577K
20260415T12Z_MSC_RDPS_WindSpeed_IsbL-0650_RLatLon0.09_PT052H.grib2 2026-04-15 14:56 642K
20260415T12Z_MSC_RDPS_WindSpeed_IsbL-0700_RLatLon0.09_PT052H.grib2 2026-04-15 14:56 623K
20260415T12Z_MSC_RDPS_WindSpeed_IsbL-0750_RLatLon0.09_PT052H.grib2 2026-04-15 14:56 654K
20260415T12Z_MSC_RDPS_WindSpeed_IsbL-0800_RLatLon0.09_PT052H.grib2 2026-04-15 14:56 708K
20260415T12Z_MSC_RDPS_WindSpeed_IsbL-0850_RLatLon0.09_PT052H.grib2 2026-04-15 14:56 771K
20260415T12Z_MSC_RDPS_WindSpeed_IsbL-0875_RLatLon0.09_PT052H.grib2 2026-04-15 14:56 795K
20260415T12Z_MSC_RDPS_WindSpeed_IsbL-0900_RLatLon0.09_PT052H.grib2 2026-04-15 14:56 813K
20260415T12Z_MSC_RDPS_WindSpeed_IsbL-0925_RLatLon0.09_PT052H.grib2 2026-04-15 14:56 825K
20260415T12Z_MSC_RDPS_WindSpeed_IsbL-0950_RLatLon0.09_PT052H.grib2 2026-04-15 14:56 871K
20260415T12Z_MSC_RDPS_WindSpeed_IsbL-0970_RLatLon0.09_PT052H.grib2 2026-04-15 14:56 869K
20260415T12Z_MSC_RDPS_WindSpeed_IsbL-0985_RLatLon0.09_PT052H.grib2 2026-04-15 14:56 863K
20260415T12Z_MSC_RDPS_WindSpeed_IsbL-1000_RLatLon0.09_PT052H.grib2 2026-04-15 14:56 863K
20260415T12Z_MSC_RDPS_WindSpeed_IsbL-1015_RLatLon0.09_PT052H.grib2 2026-04-15 14:56 855K
20260415T12Z_MSC_RDPS_WindU_AGL-10m_RLatLon0.09_PT052H.grib2 2026-04-15 14:56 441K
20260415T12Z_MSC_RDPS_WindU_AGL-120m_RLatLon0.09_PT052H.grib2 2026-04-15 14:56 425K
20260415T12Z_MSC_RDPS_WindU_AGL-40m_RLatLon0.09_PT052H.grib2 2026-04-15 14:56 547K
20260415T12Z_MSC_RDPS_WindU_AGL-80m_RLatLon0.09_PT052H.grib2 2026-04-15 14:56 427K
20260415T12Z_MSC_RDPS_WindU_IsbL-0001_RLatLon0.09_PT052H.grib2 2026-04-15 14:56 290K
20260415T12Z_MSC_RDPS_WindU_IsbL-0005_RLatLon0.09_PT052H.grib2 2026-04-15 14:56 304K
20260415T12Z_MSC_RDPS_WindU_IsbL-0010_RLatLon0.09_PT052H.grib2 2026-04-15 14:56 314K
20260415T12Z_MSC_RDPS_WindU_IsbL-0020_RLatLon0.09_PT052H.grib2 2026-04-15 14:56 259K
20260415T12Z_MSC_RDPS_WindU_IsbL-0030_RLatLon0.09_PT052H.grib2 2026-04-15 14:56 334K
20260415T12Z_MSC_RDPS_WindU_IsbL-0050_RLatLon0.09_PT052H.grib2 2026-04-15 14:56 362K
20260415T12Z_MSC_RDPS_WindU_IsbL-0100_RLatLon0.09_PT052H.grib2 2026-04-15 14:56 340K
20260415T12Z_MSC_RDPS_WindU_IsbL-0150_RLatLon0.09_PT052H.grib2 2026-04-15 14:56 383K
20260415T12Z_MSC_RDPS_WindU_IsbL-0175_RLatLon0.09_PT052H.grib2 2026-04-15 14:56 406K
20260415T12Z_MSC_RDPS_WindU_IsbL-0200_RLatLon0.09_PT052H.grib2 2026-04-15 14:56 425K
20260415T12Z_MSC_RDPS_WindU_IsbL-0225_RLatLon0.09_PT052H.grib2 2026-04-15 14:56 434K
20260415T12Z_MSC_RDPS_WindU_IsbL-0250_RLatLon0.09_PT052H.grib2 2026-04-15 14:56 340K
20260415T12Z_MSC_RDPS_WindU_IsbL-0275_RLatLon0.09_PT052H.grib2 2026-04-15 14:56 353K
20260415T12Z_MSC_RDPS_WindU_IsbL-0300_RLatLon0.09_PT052H.grib2 2026-04-15 14:56 348K
20260415T12Z_MSC_RDPS_WindU_IsbL-0350_RLatLon0.09_PT052H.grib2 2026-04-15 14:56 355K
20260415T12Z_MSC_RDPS_WindU_IsbL-0400_RLatLon0.09_PT052H.grib2 2026-04-15 14:56 458K
20260415T12Z_MSC_RDPS_WindU_IsbL-0450_RLatLon0.09_PT052H.grib2 2026-04-15 14:56 457K
20260415T12Z_MSC_RDPS_WindU_IsbL-0500_RLatLon0.09_PT052H.grib2 2026-04-15 14:56 457K
20260415T12Z_MSC_RDPS_WindU_IsbL-0550_RLatLon0.09_PT052H.grib2 2026-04-15 14:56 458K
20260415T12Z_MSC_RDPS_WindU_IsbL-0600_RLatLon0.09_PT052H.grib2 2026-04-15 14:56 467K
20260415T12Z_MSC_RDPS_WindU_IsbL-0650_RLatLon0.09_PT052H.grib2 2026-04-15 14:56 485K
20260415T12Z_MSC_RDPS_WindU_IsbL-0700_RLatLon0.09_PT052H.grib2 2026-04-15 14:56 507K
20260415T12Z_MSC_RDPS_WindU_IsbL-0750_RLatLon0.09_PT052H.grib2 2026-04-15 14:56 519K
20260415T12Z_MSC_RDPS_WindU_IsbL-0800_RLatLon0.09_PT052H.grib2 2026-04-15 14:56 568K
20260415T12Z_MSC_RDPS_WindU_IsbL-0850_RLatLon0.09_PT052H.grib2 2026-04-15 14:56 634K
20260415T12Z_MSC_RDPS_WindU_IsbL-0875_RLatLon0.09_PT052H.grib2 2026-04-15 14:56 653K
20260415T12Z_MSC_RDPS_WindU_IsbL-0900_RLatLon0.09_PT052H.grib2 2026-04-15 14:56 667K
20260415T12Z_MSC_RDPS_WindU_IsbL-0925_RLatLon0.09_PT052H.grib2 2026-04-15 14:56 675K
20260415T12Z_MSC_RDPS_WindU_IsbL-0950_RLatLon0.09_PT052H.grib2 2026-04-15 14:56 666K
20260415T12Z_MSC_RDPS_WindU_IsbL-0970_RLatLon0.09_PT052H.grib2 2026-04-15 14:56 663K
20260415T12Z_MSC_RDPS_WindU_IsbL-0985_RLatLon0.09_PT052H.grib2 2026-04-15 14:56 802K
20260415T12Z_MSC_RDPS_WindU_IsbL-1000_RLatLon0.09_PT052H.grib2 2026-04-15 14:56 802K
20260415T12Z_MSC_RDPS_WindU_IsbL-1015_RLatLon0.09_PT052H.grib2 2026-04-15 14:56 797K
20260415T12Z_MSC_RDPS_WindV_AGL-10m_RLatLon0.09_PT052H.grib2 2026-04-15 14:56 439K
20260415T12Z_MSC_RDPS_WindV_AGL-120m_RLatLon0.09_PT052H.grib2 2026-04-15 14:56 422K
20260415T12Z_MSC_RDPS_WindV_AGL-40m_RLatLon0.09_PT052H.grib2 2026-04-15 14:56 542K
20260415T12Z_MSC_RDPS_WindV_AGL-80m_RLatLon0.09_PT052H.grib2 2026-04-15 14:56 423K
20260415T12Z_MSC_RDPS_WindV_IsbL-0001_RLatLon0.09_PT052H.grib2 2026-04-15 14:56 207K
20260415T12Z_MSC_RDPS_WindV_IsbL-0005_RLatLon0.09_PT052H.grib2 2026-04-15 14:56 302K
20260415T12Z_MSC_RDPS_WindV_IsbL-0010_RLatLon0.09_PT052H.grib2 2026-04-15 14:56 313K
20260415T12Z_MSC_RDPS_WindV_IsbL-0020_RLatLon0.09_PT052H.grib2 2026-04-15 14:56 325K
20260415T12Z_MSC_RDPS_WindV_IsbL-0030_RLatLon0.09_PT052H.grib2 2026-04-15 14:56 327K
20260415T12Z_MSC_RDPS_WindV_IsbL-0050_RLatLon0.09_PT052H.grib2 2026-04-15 14:56 362K
20260415T12Z_MSC_RDPS_WindV_IsbL-0100_RLatLon0.09_PT052H.grib2 2026-04-15 14:56 431K
20260415T12Z_MSC_RDPS_WindV_IsbL-0150_RLatLon0.09_PT052H.grib2 2026-04-15 14:56 379K
20260415T12Z_MSC_RDPS_WindV_IsbL-0175_RLatLon0.09_PT052H.grib2 2026-04-15 14:56 404K
20260415T12Z_MSC_RDPS_WindV_IsbL-0200_RLatLon0.09_PT052H.grib2 2026-04-15 14:56 423K
20260415T12Z_MSC_RDPS_WindV_IsbL-0225_RLatLon0.09_PT052H.grib2 2026-04-15 14:56 335K
20260415T12Z_MSC_RDPS_WindV_IsbL-0250_RLatLon0.09_PT052H.grib2 2026-04-15 14:56 339K
20260415T12Z_MSC_RDPS_WindV_IsbL-0275_RLatLon0.09_PT052H.grib2 2026-04-15 14:56 353K
20260415T12Z_MSC_RDPS_WindV_IsbL-0300_RLatLon0.09_PT052H.grib2 2026-04-15 14:56 348K
20260415T12Z_MSC_RDPS_WindV_IsbL-0350_RLatLon0.09_PT052H.grib2 2026-04-15 14:56 355K
20260415T12Z_MSC_RDPS_WindV_IsbL-0400_RLatLon0.09_PT052H.grib2 2026-04-15 14:56 356K
20260415T12Z_MSC_RDPS_WindV_IsbL-0450_RLatLon0.09_PT052H.grib2 2026-04-15 14:56 455K
20260415T12Z_MSC_RDPS_WindV_IsbL-0500_RLatLon0.09_PT052H.grib2 2026-04-15 14:56 454K
20260415T12Z_MSC_RDPS_WindV_IsbL-0550_RLatLon0.09_PT052H.grib2 2026-04-15 14:56 456K
20260415T12Z_MSC_RDPS_WindV_IsbL-0600_RLatLon0.09_PT052H.grib2 2026-04-15 14:56 465K
20260415T12Z_MSC_RDPS_WindV_IsbL-0650_RLatLon0.09_PT052H.grib2 2026-04-15 14:56 466K
20260415T12Z_MSC_RDPS_WindV_IsbL-0700_RLatLon0.09_PT052H.grib2 2026-04-15 14:56 488K
20260415T12Z_MSC_RDPS_WindV_IsbL-0750_RLatLon0.09_PT052H.grib2 2026-04-15 14:56 516K
20260415T12Z_MSC_RDPS_WindV_IsbL-0800_RLatLon0.09_PT052H.grib2 2026-04-15 14:56 563K
20260415T12Z_MSC_RDPS_WindV_IsbL-0850_RLatLon0.09_PT052H.grib2 2026-04-15 14:56 619K
20260415T12Z_MSC_RDPS_WindV_IsbL-0875_RLatLon0.09_PT052H.grib2 2026-04-15 14:56 640K
20260415T12Z_MSC_RDPS_WindV_IsbL-0900_RLatLon0.09_PT052H.grib2 2026-04-15 14:56 657K
20260415T12Z_MSC_RDPS_WindV_IsbL-0925_RLatLon0.09_PT052H.grib2 2026-04-15 14:56 665K
20260415T12Z_MSC_RDPS_WindV_IsbL-0950_RLatLon0.09_PT052H.grib2 2026-04-15 14:56 660K
20260415T12Z_MSC_RDPS_WindV_IsbL-0970_RLatLon0.09_PT052H.grib2 2026-04-15 14:56 656K
20260415T12Z_MSC_RDPS_WindV_IsbL-0985_RLatLon0.09_PT052H.grib2 2026-04-15 14:56 796K
20260415T12Z_MSC_RDPS_WindV_IsbL-1000_RLatLon0.09_PT052H.grib2 2026-04-15 14:56 796K
20260415T12Z_MSC_RDPS_WindV_IsbL-1015_RLatLon0.09_PT052H.grib2 2026-04-15 14:56 791K